ARIANE 42P DEB, 44514

Orbit data source: Space-Track

ARIANE 42P DEB, 44514 is space debris in LEO originally from a launch on Mon, 10 Aug 1992 UTC launched from the French Guiana (FRGUI). Debris objects in space refer to the collection of defunct objects orbiting the Earth. Examples of debris include non-operational satellites, rocket bodies, and fragments generated from explosions, collisions, or faulty payload assembly.

Loading next visibility...
Identifier
44514, 1992-052M
Orbit
LEO
Country
Flag of FRFR
Related business
Manufacturer
ArianeGroup
Mission
Spacecraft
Bus & Motor
Unknown
Mass
Unknown
Launch date (UTC)
1992-08-10 (33 years ago)
Launch vehicle
Unknown
Launch site
French Guiana (FRGUI)
Object type
Payload
Rocket body
Debris
Shape & HBR
Unknown shape, 0.1 m
Radar Cross Section
Small (<0.1 m²)

Expand to show TLE details & history
Last TLE update: 3 days ago

TLE from 3 days ago
0 ARIANE 42P DEB
1 44514U 92052M   26034.45952923  .00003026  00000-0  92683-2 0  9991
2 44514  65.7865  49.4354 0249561  62.5074 300.1077 12.97105564304417
Epoch: 2026-02-03T11:01Z
TLE epoch observation values (Epoch: 2026-02-03T11:01:43.325Z)
Latitude
-0.00005°
Longitude
110.3647°
Altitude
1,183.195 km
Speed
7.306 km/s
True Right ascension
03h 17m 44s
True Declination
0° 00' 00"
Sunlit
Object was in daylight at epoch
Visualization orbit readout
Latitude
Unknown
Longitude
Unknown
Altitude
Unknown
Speed
Unknown
Apparent Right ascension
Unknown
Apparent Declination
Unknown
Sunlit
N/A
Visualization observer readout
Local Sidereal Time
10:27:46
Azimuth
Unknown
Elevation
Unknown
Doppler factor
Unknown
Orbital elements
Apogee altitude
1,462.948 km
Perigee altitude
1,081.111 km
Semi-major axis
7,650.167 km
Eccentricity
0.02496
Inclination
65.7865°
RAAN
49.4354°
Arg. of periapsis
62.5074°
True anomaly
297.59527°
Mean anomaly
300.1077°
Eccentric anomaly
298.85535°
Mean motion
3.24367 °/min
Orbital period
110.99 mins
BSTAR
0.0092683
Loading maneuver chart data...
Computing Atmospheric mass density...
Loading historical data...
Loading historical data...
Loading historical data...
Loading historical data...
Loading historical data...
Loading historical data...
Loading historical data...

Documentation

Showing up to 5 results
|